Year,Month,Day,Hour,Minute,Value (Times are PST for temperature in C)
2015,07,03,00,00,20.20
2015,07,03,00,01,20.20
2015,07,03,00,02,20.20
2015,07,03,00,03,20.20
2015,07,03,00,04,20.20
2015,07,03,00,05,20.20
2015,07,03,00,06,20.20
2015,07,03,00,07,20.20
2015,07,03,00,08,20.20
2015,07,03,00,09,20.20
2015,07,03,00,10,20.20
2015,07,03,00,11,20.20
2015,07,03,00,12,20.20
2015,07,03,00,13,20.20
2015,07,03,00,14,20.20
2015,07,03,00,15,20.20
2015,07,03,00,16,20.20
2015,07,03,00,17,20.10
2015,07,03,00,18,20.10
2015,07,03,00,19,20.10
2015,07,03,00,20,20.00
2015,07,03,00,21,19.90
2015,07,03,00,22,19.90
2015,07,03,00,23,19.90
2015,07,03,00,24,19.90
2015,07,03,00,25,19.80
2015,07,03,00,26,19.80
2015,07,03,00,27,19.80
2015,07,03,00,28,19.70
2015,07,03,00,29,19.70
2015,07,03,00,30,19.70
2015,07,03,00,31,19.60
2015,07,03,00,32,19.60
2015,07,03,00,33,19.60
2015,07,03,00,34,19.50
2015,07,03,00,35,19.50
2015,07,03,00,36,19.50
2015,07,03,00,37,19.40
2015,07,03,00,38,19.40
2015,07,03,00,39,19.40
2015,07,03,00,40,19.40
2015,07,03,00,41,19.40
2015,07,03,00,42,19.30
2015,07,03,00,43,19.30
2015,07,03,00,44,19.30
2015,07,03,00,45,19.20
2015,07,03,00,46,19.20
2015,07,03,00,47,19.20
2015,07,03,00,48,19.10
2015,07,03,00,49,19.10
2015,07,03,00,50,19.10
2015,07,03,00,51,19.10
2015,07,03,00,52,19.10
2015,07,03,00,53,19.10
2015,07,03,00,54,19.10
2015,07,03,00,55,19.10
2015,07,03,00,56,19.10
2015,07,03,00,57,19.10
2015,07,03,00,58,19.10
2015,07,03,00,59,19.10
2015,07,03,01,00,19.10
2015,07,03,01,01,19.10
2015,07,03,01,02,19.10
2015,07,03,01,03,19.10
2015,07,03,01,04,19.10
2015,07,03,01,05,19.10
2015,07,03,01,06,19.10
2015,07,03,01,07,19.10
2015,07,03,01,08,19.10
2015,07,03,01,09,19.10
2015,07,03,01,10,19.10
2015,07,03,01,11,19.10
2015,07,03,01,12,19.10
2015,07,03,01,13,19.10
2015,07,03,01,14,19.10
2015,07,03,01,15,19.10
2015,07,03,01,16,19.10
2015,07,03,01,17,19.10
2015,07,03,01,18,19.10
2015,07,03,01,19,19.10
2015,07,03,01,20,19.10
2015,07,03,01,21,19.10
2015,07,03,01,22,19.10
2015,07,03,01,23,19.10
2015,07,03,01,24,19.10
2015,07,03,01,25,19.10
2015,07,03,01,26,19.10
2015,07,03,01,27,19.10
2015,07,03,01,28,19.10
2015,07,03,01,29,19.10
2015,07,03,01,30,19.10
2015,07,03,01,31,19.10
2015,07,03,01,32,19.10
2015,07,03,01,33,19.10
2015,07,03,01,34,19.10
2015,07,03,01,35,19.00
2015,07,03,01,36,18.90
2015,07,03,01,37,18.90
2015,07,03,01,38,18.90
2015,07,03,01,39,18.90
2015,07,03,01,40,18.90
2015,07,03,01,41,18.90
2015,07,03,01,42,18.90
2015,07,03,01,43,18.90
2015,07,03,01,44,18.80
2015,07,03,01,45,18.80
2015,07,03,01,46,18.80
2015,07,03,01,47,18.80
2015,07,03,01,48,18.80
2015,07,03,01,49,18.80
2015,07,03,01,50,18.80
2015,07,03,01,51,18.80
2015,07,03,01,52,18.80
2015,07,03,01,53,18.70
2015,07,03,01,54,18.70
2015,07,03,01,55,18.70
2015,07,03,01,56,18.70
2015,07,03,01,57,18.60
2015,07,03,01,58,18.60
2015,07,03,01,59,18.60
2015,07,03,02,00,18.50
2015,07,03,02,01,18.50
2015,07,03,02,02,18.40
2015,07,03,02,03,18.40
2015,07,03,02,04,18.30
2015,07,03,02,05,18.30
2015,07,03,02,06,18.20
2015,07,03,02,07,18.20
2015,07,03,02,08,18.20
2015,07,03,02,09,18.20
2015,07,03,02,10,18.20
2015,07,03,02,11,18.20
2015,07,03,02,12,18.20
2015,07,03,02,13,18.10
2015,07,03,02,14,18.10
2015,07,03,02,15,18.20
2015,07,03,02,16,18.20
2015,07,03,02,17,18.20
2015,07,03,02,18,18.20
2015,07,03,02,19,18.20
2015,07,03,02,20,18.20
2015,07,03,02,21,18.20
2015,07,03,02,22,18.10
2015,07,03,02,23,18.00
2015,07,03,02,24,17.90
2015,07,03,02,25,17.90
2015,07,03,02,26,17.90
2015,07,03,02,27,17.80
2015,07,03,02,28,17.80
2015,07,03,02,29,17.80
2015,07,03,02,30,17.70
2015,07,03,02,31,17.70
2015,07,03,02,32,17.70
2015,07,03,02,33,17.60
2015,07,03,02,34,17.60
2015,07,03,02,35,17.60
2015,07,03,02,36,17.50
2015,07,03,02,37,17.50
2015,07,03,02,38,17.50
2015,07,03,02,39,17.50
2015,07,03,02,40,17.40
2015,07,03,02,41,17.40
2015,07,03,02,42,17.40
2015,07,03,02,43,17.40
2015,07,03,02,44,17.30
2015,07,03,02,45,17.30
2015,07,03,02,46,17.30
2015,07,03,02,47,17.30
2015,07,03,02,48,17.30
2015,07,03,02,49,17.30
2015,07,03,02,50,17.30
2015,07,03,02,51,17.30
2015,07,03,02,52,17.30
2015,07,03,02,53,17.30
2015,07,03,02,54,17.30
2015,07,03,02,55,17.30
2015,07,03,02,56,17.30
2015,07,03,02,57,17.20
2015,07,03,02,58,17.20
2015,07,03,02,59,17.20
2015,07,03,03,00,17.20
2015,07,03,03,01,17.20
2015,07,03,03,02,17.10
2015,07,03,03,03,17.10
2015,07,03,03,04,17.10
2015,07,03,03,05,17.10
2015,07,03,03,06,17.00
2015,07,03,03,07,17.00
2015,07,03,03,08,17.00
2015,07,03,03,09,17.00
2015,07,03,03,10,17.00
2015,07,03,03,11,17.00
2015,07,03,03,12,17.00
2015,07,03,03,13,17.00
2015,07,03,03,14,17.00
2015,07,03,03,15,17.00
2015,07,03,03,16,17.00
2015,07,03,03,17,17.10
2015,07,03,03,18,17.10
2015,07,03,03,19,17.10
2015,07,03,03,20,17.10
2015,07,03,03,21,17.10
2015,07,03,03,22,17.10
2015,07,03,03,23,17.10
2015,07,03,03,24,17.10
2015,07,03,03,25,17.10
2015,07,03,03,26,17.10
2015,07,03,03,27,17.10
2015,07,03,03,28,17.10
2015,07,03,03,29,17.10
2015,07,03,03,30,17.00
2015,07,03,03,31,17.00
2015,07,03,03,32,17.00
2015,07,03,03,33,17.00
2015,07,03,03,34,16.90
2015,07,03,03,35,16.90
2015,07,03,03,36,16.90
2015,07,03,03,37,16.90
2015,07,03,03,38,16.80
2015,07,03,03,39,16.80
2015,07,03,03,40,16.70
2015,07,03,03,41,16.70
2015,07,03,03,42,16.70
2015,07,03,03,43,16.70
2015,07,03,03,44,16.70
2015,07,03,03,45,16.70
2015,07,03,03,46,16.70
2015,07,03,03,47,16.70
2015,07,03,03,48,16.60
2015,07,03,03,49,16.60
2015,07,03,03,50,16.60
2015,07,03,03,51,16.60
2015,07,03,03,52,16.60
2015,07,03,03,53,16.60
2015,07,03,03,54,16.60
2015,07,03,03,55,16.50
2015,07,03,03,56,16.40
2015,07,03,03,57,16.40
2015,07,03,03,58,16.40
2015,07,03,03,59,16.40
2015,07,03,04,00,16.40
2015,07,03,04,01,16.40
2015,07,03,04,02,16.40
2015,07,03,04,03,16.40
2015,07,03,04,04,16.40
2015,07,03,04,05,16.40
2015,07,03,04,06,16.40
2015,07,03,04,07,16.40
2015,07,03,04,08,16.40
2015,07,03,04,09,16.30
2015,07,03,04,10,16.30
2015,07,03,04,11,16.30
2015,07,03,04,12,16.30
2015,07,03,04,13,16.30
2015,07,03,04,14,16.30
2015,07,03,04,15,16.30
2015,07,03,04,16,16.20
2015,07,03,04,17,16.20
2015,07,03,04,18,16.20
2015,07,03,04,19,16.20
2015,07,03,04,20,16.20
2015,07,03,04,21,16.20
2015,07,03,04,22,16.10
2015,07,03,04,23,16.10
2015,07,03,04,24,16.10
2015,07,03,04,25,16.10
2015,07,03,04,26,16.10
2015,07,03,04,27,16.10
2015,07,03,04,28,16.10
2015,07,03,04,29,16.10
2015,07,03,04,30,16.10
2015,07,03,04,31,16.10
2015,07,03,04,32,16.10
2015,07,03,04,33,16.10
2015,07,03,04,34,16.10
2015,07,03,04,35,16.10
2015,07,03,04,36,16.10
2015,07,03,04,37,16.10
2015,07,03,04,38,16.10
2015,07,03,04,39,16.10
2015,07,03,04,40,16.00
2015,07,03,04,41,15.90
2015,07,03,04,42,15.90
2015,07,03,04,43,15.90
2015,07,03,04,44,15.90
2015,07,03,04,45,15.90
2015,07,03,04,46,15.90
2015,07,03,04,47,15.90
2015,07,03,04,48,15.90
2015,07,03,04,49,15.90
2015,07,03,04,50,15.90
2015,07,03,04,51,15.90
2015,07,03,04,52,15.80
2015,07,03,04,53,15.80
2015,07,03,04,54,15.80
2015,07,03,04,55,15.80
2015,07,03,04,56,15.80
2015,07,03,04,57,15.80
2015,07,03,04,58,15.80
2015,07,03,04,59,15.80
2015,07,03,05,00,15.70
2015,07,03,05,01,15.70
2015,07,03,05,02,15.70
2015,07,03,05,03,15.70
2015,07,03,05,04,15.70
2015,07,03,05,05,15.70
2015,07,03,05,06,15.70
2015,07,03,05,07,15.60
2015,07,03,05,08,15.60
2015,07,03,05,09,15.60
2015,07,03,05,10,15.60
2015,07,03,05,11,15.60
2015,07,03,05,12,15.60
2015,07,03,05,13,15.50
2015,07,03,05,14,15.50
2015,07,03,05,15,15.50
2015,07,03,05,16,15.50
2015,07,03,05,17,15.50
2015,07,03,05,18,15.50
2015,07,03,05,19,15.50
2015,07,03,05,20,15.40
2015,07,03,05,21,15.40
2015,07,03,05,22,15.40
2015,07,03,05,23,15.40
2015,07,03,05,24,15.40
2015,07,03,05,25,15.40
2015,07,03,05,26,15.40
2015,07,03,05,27,15.40
2015,07,03,05,28,15.30
2015,07,03,05,29,15.30
2015,07,03,05,30,15.30
2015,07,03,05,31,15.30
2015,07,03,05,32,15.30
2015,07,03,05,33,15.40
2015,07,03,05,34,15.40
2015,07,03,05,35,15.40
2015,07,03,05,36,15.40
2015,07,03,05,37,15.40
2015,07,03,05,38,15.40
2015,07,03,05,39,15.40
2015,07,03,05,40,15.40
2015,07,03,05,41,15.50
2015,07,03,05,42,15.50
2015,07,03,05,43,15.50
2015,07,03,05,44,15.50
2015,07,03,05,45,15.50
2015,07,03,05,46,15.50
2015,07,03,05,47,15.50
2015,07,03,05,48,15.50
2015,07,03,05,49,15.50
2015,07,03,05,50,15.50
2015,07,03,05,51,15.50
2015,07,03,05,52,15.50
2015,07,03,05,53,15.60
2015,07,03,05,54,15.70
2015,07,03,05,55,15.70
2015,07,03,05,56,15.80
2015,07,03,05,57,15.80
2015,07,03,05,58,15.90
2015,07,03,05,59,16.00
2015,07,03,06,00,16.10
2015,07,03,06,01,16.10
2015,07,03,06,02,16.10
2015,07,03,06,03,16.20
2015,07,03,06,04,16.20
2015,07,03,06,05,16.30
2015,07,03,06,06,16.30
2015,07,03,06,07,16.40
2015,07,03,06,08,16.40
2015,07,03,06,09,16.40
2015,07,03,06,10,16.40
2015,07,03,06,11,16.40
2015,07,03,06,12,16.40
2015,07,03,06,13,16.40
2015,07,03,06,14,16.50
2015,07,03,06,15,16.60
2015,07,03,06,16,16.60
2015,07,03,06,17,16.70
2015,07,03,06,18,16.70
2015,07,03,06,19,16.70
2015,07,03,06,20,16.80
2015,07,03,06,21,16.90
2015,07,03,06,22,17.00
2015,07,03,06,23,17.00
2015,07,03,06,24,17.10
2015,07,03,06,25,17.20
2015,07,03,06,26,17.20
2015,07,03,06,27,17.30
2015,07,03,06,28,17.30
2015,07,03,06,29,17.40
2015,07,03,06,30,17.50
2015,07,03,06,31,17.50
2015,07,03,06,32,17.60
2015,07,03,06,33,17.70
2015,07,03,06,34,17.80
2015,07,03,06,35,17.80
2015,07,03,06,36,17.90
2015,07,03,06,37,18.00
2015,07,03,06,38,18.10
2015,07,03,06,39,18.10
2015,07,03,06,40,18.20
2015,07,03,06,41,18.30
2015,07,03,06,42,18.30
2015,07,03,06,43,18.40
2015,07,03,06,44,18.50
2015,07,03,06,45,18.60
2015,07,03,06,46,18.70
2015,07,03,06,47,18.80
2015,07,03,06,48,18.90
2015,07,03,06,49,18.90
2015,07,03,06,50,19.00
2015,07,03,06,51,19.10
2015,07,03,06,52,19.20
2015,07,03,06,53,19.30
2015,07,03,06,54,19.40
2015,07,03,06,55,19.60
2015,07,03,06,56,19.60
2015,07,03,06,57,19.70
2015,07,03,06,58,19.80
2015,07,03,06,59,19.90
2015,07,03,07,00,19.90
2015,07,03,07,01,20.00
2015,07,03,07,02,20.10
2015,07,03,07,03,20.20
2015,07,03,07,04,20.20
2015,07,03,07,05,20.20
2015,07,03,07,06,20.20
2015,07,03,07,07,20.20
2015,07,03,07,08,20.20
2015,07,03,07,09,20.20
2015,07,03,07,10,20.20
2015,07,03,07,11,20.20
2015,07,03,07,12,20.20
2015,07,03,07,13,20.20
2015,07,03,07,14,20.10
2015,07,03,07,15,20.10
2015,07,03,07,16,20.10
2015,07,03,07,17,20.10
2015,07,03,07,18,20.10
2015,07,03,07,19,20.10
2015,07,03,07,20,20.10
2015,07,03,07,21,20.20
2015,07,03,07,22,20.20
2015,07,03,07,23,20.30
2015,07,03,07,24,20.40
2015,07,03,07,25,20.50
2015,07,03,07,26,20.50
2015,07,03,07,27,20.60
2015,07,03,07,28,20.60
2015,07,03,07,29,20.60
2015,07,03,07,30,20.70
2015,07,03,07,31,20.70
2015,07,03,07,32,20.70
2015,07,03,07,33,20.80
2015,07,03,07,34,20.90
2015,07,03,07,35,21.00
2015,07,03,07,36,21.00
2015,07,03,07,37,21.00
2015,07,03,07,38,21.00
2015,07,03,07,39,21.10
2015,07,03,07,40,21.20
2015,07,03,07,41,21.30
2015,07,03,07,42,21.40
2015,07,03,07,43,21.60
2015,07,03,07,44,21.80
2015,07,03,07,45,21.90
2015,07,03,07,46,22.00
2015,07,03,07,47,22.10
2015,07,03,07,48,22.20
2015,07,03,07,49,22.30
2015,07,03,07,50,22.30
2015,07,03,07,51,22.40
2015,07,03,07,52,22.50
2015,07,03,07,53,22.50
2015,07,03,07,54,22.60
2015,07,03,07,55,22.70
2015,07,03,07,56,22.80
2015,07,03,07,57,22.80
2015,07,03,07,58,22.90
2015,07,03,07,59,22.90
2015,07,03,08,00,22.90
2015,07,03,08,01,22.90
2015,07,03,08,02,22.90
2015,07,03,08,03,22.90
2015,07,03,08,04,22.90
2015,07,03,08,05,22.90
2015,07,03,08,06,22.90
2015,07,03,08,07,22.90
2015,07,03,08,08,22.90
2015,07,03,08,09,22.90
2015,07,03,08,10,22.90
2015,07,03,08,11,22.90
2015,07,03,08,12,22.70
2015,07,03,08,13,22.60
2015,07,03,08,14,22.50
2015,07,03,08,15,22.50
2015,07,03,08,16,22.40
2015,07,03,08,17,22.40
2015,07,03,08,18,22.30
2015,07,03,08,19,22.20
2015,07,03,08,20,22.10
2015,07,03,08,21,22.00
2015,07,03,08,22,22.00
2015,07,03,08,23,21.90
2015,07,03,08,24,21.90
2015,07,03,08,25,21.90
2015,07,03,08,26,21.90
2015,07,03,08,27,21.90
2015,07,03,08,28,21.90
2015,07,03,08,29,21.80
2015,07,03,08,30,21.80
2015,07,03,08,31,21.80
2015,07,03,08,32,21.90
2015,07,03,08,33,22.00
2015,07,03,08,34,22.00
2015,07,03,08,35,22.00
2015,07,03,08,36,22.00
2015,07,03,08,37,21.90
2015,07,03,08,38,21.90
2015,07,03,08,39,22.00
2015,07,03,08,40,22.00
2015,07,03,08,41,22.00
2015,07,03,08,42,22.00
2015,07,03,08,43,22.00
2015,07,03,08,44,22.00
2015,07,03,08,45,22.00
2015,07,03,08,46,22.00
2015,07,03,08,47,22.00
2015,07,03,08,48,22.00
2015,07,03,08,49,22.00
2015,07,03,08,50,22.00
2015,07,03,08,51,22.00
2015,07,03,08,52,22.10
2015,07,03,08,53,22.10
2015,07,03,08,54,22.10
2015,07,03,08,55,22.10
2015,07,03,08,56,22.00
2015,07,03,08,57,22.00
2015,07,03,08,58,22.00
2015,07,03,08,59,22.00
2015,07,03,09,00,22.00
2015,07,03,09,01,22.00
2015,07,03,09,02,22.00
2015,07,03,09,03,22.00
2015,07,03,09,04,22.10
2015,07,03,09,05,22.20
2015,07,03,09,06,22.30
2015,07,03,09,07,22.40
2015,07,03,09,08,22.40
2015,07,03,09,09,22.40
2015,07,03,09,10,22.50
2015,07,03,09,11,22.50
2015,07,03,09,12,22.40
2015,07,03,09,13,22.40
2015,07,03,09,14,22.40
2015,07,03,09,15,22.50
2015,07,03,09,16,22.50
2015,07,03,09,17,22.50
2015,07,03,09,18,22.50
2015,07,03,09,19,22.50
2015,07,03,09,20,22.50
2015,07,03,09,21,22.40
2015,07,03,09,22,22.40
2015,07,03,09,23,22.40
2015,07,03,09,24,22.40
2015,07,03,09,25,22.40
2015,07,03,09,26,22.50
2015,07,03,09,27,22.60
2015,07,03,09,28,22.70
2015,07,03,09,29,22.80
2015,07,03,09,30,22.80
2015,07,03,09,31,22.80
2015,07,03,09,32,22.80
2015,07,03,09,33,22.90
2015,07,03,09,34,22.90
2015,07,03,09,35,22.90
2015,07,03,09,36,22.90
2015,07,03,09,37,23.00
2015,07,03,09,38,23.10
2015,07,03,09,39,23.20
2015,07,03,09,40,23.30
2015,07,03,09,41,23.30
2015,07,03,09,42,23.30
2015,07,03,09,43,23.30
2015,07,03,09,44,23.30
2015,07,03,09,45,23.40
2015,07,03,09,46,23.40
2015,07,03,09,47,23.50
2015,07,03,09,48,23.60
2015,07,03,09,49,23.60
2015,07,03,09,50,23.70
2015,07,03,09,51,23.70
2015,07,03,09,52,23.90
2015,07,03,09,53,24.00
2015,07,03,09,54,24.10
2015,07,03,09,55,24.10
2015,07,03,09,56,24.10
2015,07,03,09,57,23.90
2015,07,03,09,58,23.80
2015,07,03,09,59,23.80
2015,07,03,10,00,23.70
2015,07,03,10,01,23.60
2015,07,03,10,02,23.60
2015,07,03,10,03,23.50
2015,07,03,10,04,23.40
2015,07,03,10,05,23.20
2015,07,03,10,06,23.10
2015,07,03,10,07,23.00
2015,07,03,10,08,22.90
2015,07,03,10,09,22.90
2015,07,03,10,10,22.90
2015,07,03,10,11,22.90
2015,07,03,10,12,23.00
2015,07,03,10,13,23.10
2015,07,03,10,14,22.90
2015,07,03,10,15,22.90
2015,07,03,10,16,22.90
2015,07,03,10,17,22.90
2015,07,03,10,18,22.90
2015,07,03,10,19,22.90
2015,07,03,10,20,23.10
2015,07,03,10,21,23.20
2015,07,03,10,22,23.30
2015,07,03,10,23,23.40
2015,07,03,10,24,23.50
2015,07,03,10,25,23.60
2015,07,03,10,26,23.70
2015,07,03,10,27,23.70
2015,07,03,10,28,23.70
2015,07,03,10,29,23.70
2015,07,03,10,30,23.70
2015,07,03,10,31,23.70
2015,07,03,10,32,23.50
2015,07,03,10,33,23.40
2015,07,03,10,34,23.30
2015,07,03,10,35,23.20
2015,07,03,10,36,23.10
2015,07,03,10,37,23.10
2015,07,03,10,38,23.00
2015,07,03,10,39,22.90
2015,07,03,10,40,22.90
2015,07,03,10,41,22.90
2015,07,03,10,42,22.90
2015,07,03,10,43,23.00
2015,07,03,10,44,23.20
2015,07,03,10,45,23.30
2015,07,03,10,46,23.20
2015,07,03,10,47,23.20
2015,07,03,10,48,23.20
2015,07,03,10,49,23.20
2015,07,03,10,50,23.30
2015,07,03,10,51,23.30
2015,07,03,10,52,23.40
2015,07,03,10,53,23.40
2015,07,03,10,54,23.50
2015,07,03,10,55,23.60
2015,07,03,10,56,23.70
2015,07,03,10,57,23.80
2015,07,03,10,58,24.00
2015,07,03,10,59,24.10
2015,07,03,11,00,24.20
2015,07,03,11,01,24.10
2015,07,03,11,02,24.00
2015,07,03,11,03,23.90
2015,07,03,11,04,23.90
2015,07,03,11,05,23.90
2015,07,03,11,06,23.90
2015,07,03,11,07,23.90
2015,07,03,11,08,24.00
2015,07,03,11,09,24.00
2015,07,03,11,10,24.10
2015,07,03,11,11,24.10
2015,07,03,11,12,24.10
2015,07,03,11,13,24.10
2015,07,03,11,14,24.10
2015,07,03,11,15,24.20
2015,07,03,11,16,24.30
2015,07,03,11,17,24.30
2015,07,03,11,18,24.40
2015,07,03,11,19,24.30
2015,07,03,11,20,24.30
2015,07,03,11,21,24.40
2015,07,03,11,22,24.40
2015,07,03,11,23,24.40
2015,07,03,11,24,24.40
2015,07,03,11,25,24.40
2015,07,03,11,26,24.30
2015,07,03,11,27,24.30
2015,07,03,11,28,24.20
2015,07,03,11,29,24.10
2015,07,03,11,30,24.20
2015,07,03,11,31,24.20
2015,07,03,11,32,24.20
2015,07,03,11,33,24.30
2015,07,03,11,34,24.40
2015,07,03,11,35,24.40
2015,07,03,11,36,24.50
2015,07,03,11,37,24.50
2015,07,03,11,38,24.50
2015,07,03,11,39,24.70
2015,07,03,11,40,24.80
2015,07,03,11,41,24.80
2015,07,03,11,42,24.80
2015,07,03,11,43,24.70
2015,07,03,11,44,24.70
2015,07,03,11,45,24.60
2015,07,03,11,46,24.50
2015,07,03,11,47,24.40
2015,07,03,11,48,24.30
2015,07,03,11,49,24.30
2015,07,03,11,50,24.30
2015,07,03,11,51,24.30
2015,07,03,11,52,24.40
2015,07,03,11,53,24.40
2015,07,03,11,54,24.30
2015,07,03,11,55,24.30
2015,07,03,11,56,24.20
2015,07,03,11,57,24.30
2015,07,03,11,58,24.50
2015,07,03,11,59,24.50
2015,07,03,12,00,24.50
2015,07,03,12,01,24.50
2015,07,03,12,02,24.60
2015,07,03,12,03,24.80
2015,07,03,12,04,24.90
2015,07,03,12,05,24.90
2015,07,03,12,06,25.00
2015,07,03,12,07,25.10
2015,07,03,12,08,25.20
2015,07,03,12,09,25.30
2015,07,03,12,10,25.20
2015,07,03,12,11,25.20
2015,07,03,12,12,25.10
2015,07,03,12,13,25.00
2015,07,03,12,14,25.00
2015,07,03,12,15,24.90
2015,07,03,12,16,24.90
2015,07,03,12,17,24.90
2015,07,03,12,18,24.80
2015,07,03,12,19,24.80
2015,07,03,12,20,24.70
2015,07,03,12,21,24.70
2015,07,03,12,22,24.70
2015,07,03,12,23,24.80
2015,07,03,12,24,24.80
2015,07,03,12,25,24.80
2015,07,03,12,26,24.90
2015,07,03,12,27,25.00
2015,07,03,12,28,25.00
2015,07,03,12,29,25.00
2015,07,03,12,30,25.00
2015,07,03,12,31,24.90
2015,07,03,12,32,25.00
2015,07,03,12,33,25.10
2015,07,03,12,34,25.20
2015,07,03,12,35,25.30
2015,07,03,12,36,25.40
2015,07,03,12,37,25.50
2015,07,03,12,38,25.60
2015,07,03,12,39,25.60
2015,07,03,12,40,25.70
2015,07,03,12,41,25.90
2015,07,03,12,42,25.90
2015,07,03,12,43,26.00
2015,07,03,12,44,26.00
2015,07,03,12,45,25.90
2015,07,03,12,46,25.80
2015,07,03,12,47,25.60
2015,07,03,12,48,25.60
2015,07,03,12,49,25.60
2015,07,03,12,50,25.60
2015,07,03,12,51,25.50
2015,07,03,12,52,25.30
2015,07,03,12,53,25.20
2015,07,03,12,54,25.20
2015,07,03,12,55,25.10
2015,07,03,12,56,25.00
2015,07,03,12,57,25.10
2015,07,03,12,58,25.20
2015,07,03,12,59,25.10
2015,07,03,13,00,25.00
2015,07,03,13,01,25.10
2015,07,03,13,02,25.20
2015,07,03,13,03,25.30
2015,07,03,13,04,25.50
2015,07,03,13,05,25.80
2015,07,03,13,06,26.10
2015,07,03,13,07,26.30
2015,07,03,13,08,26.50
2015,07,03,13,09,26.60
2015,07,03,13,10,26.60
2015,07,03,13,11,26.60
2015,07,03,13,12,26.60
2015,07,03,13,13,26.60
2015,07,03,13,14,26.60
2015,07,03,13,15,26.60
2015,07,03,13,16,26.60
2015,07,03,13,17,26.50
2015,07,03,13,18,26.50
2015,07,03,13,19,26.60
2015,07,03,13,20,26.70
2015,07,03,13,21,26.90
2015,07,03,13,22,27.00
2015,07,03,13,23,27.20
2015,07,03,13,24,27.30
2015,07,03,13,25,27.40
2015,07,03,13,26,27.50
2015,07,03,13,27,27.60
2015,07,03,13,28,27.90
2015,07,03,13,29,28.00
2015,07,03,13,30,28.10
2015,07,03,13,31,28.20
2015,07,03,13,32,28.20
2015,07,03,13,33,28.20
2015,07,03,13,34,28.10
2015,07,03,13,35,28.00
2015,07,03,13,36,28.00
2015,07,03,13,37,28.00
2015,07,03,13,38,27.90
2015,07,03,13,39,27.90
2015,07,03,13,40,27.90
2015,07,03,13,41,27.80
2015,07,03,13,42,27.70
2015,07,03,13,43,27.80
2015,07,03,13,44,27.80
2015,07,03,13,45,27.90
2015,07,03,13,46,27.90
2015,07,03,13,47,28.00
2015,07,03,13,48,28.00
2015,07,03,13,49,28.10
2015,07,03,13,50,28.20
2015,07,03,13,51,28.30
2015,07,03,13,52,28.30
2015,07,03,13,53,28.40
2015,07,03,13,54,28.50
2015,07,03,13,55,28.60
2015,07,03,13,56,28.50
2015,07,03,13,57,28.40
2015,07,03,13,58,28.40
2015,07,03,13,59,28.60
2015,07,03,14,00,28.80
2015,07,03,14,01,28.90
2015,07,03,14,02,29.00
2015,07,03,14,03,29.10
2015,07,03,14,04,29.30
2015,07,03,14,05,29.40
2015,07,03,14,06,29.50
2015,07,03,14,07,29.50
2015,07,03,14,08,29.40
2015,07,03,14,09,29.30
2015,07,03,14,10,29.20
2015,07,03,14,11,29.20
2015,07,03,14,12,29.20
2015,07,03,14,13,29.10
2015,07,03,14,14,29.20
2015,07,03,14,15,29.10
2015,07,03,14,16,29.00
2015,07,03,14,17,29.00
2015,07,03,14,18,29.10
2015,07,03,14,19,29.20
2015,07,03,14,20,29.20
2015,07,03,14,21,29.30
2015,07,03,14,22,29.40
2015,07,03,14,23,29.50
2015,07,03,14,24,29.70
2015,07,03,14,25,29.70
2015,07,03,14,26,29.70
2015,07,03,14,27,29.80
2015,07,03,14,28,29.70
2015,07,03,14,29,29.60
2015,07,03,14,30,29.50
2015,07,03,14,31,29.50
2015,07,03,14,32,29.50
2015,07,03,14,33,29.50
2015,07,03,14,34,29.60
2015,07,03,14,35,29.60
2015,07,03,14,36,29.60
2015,07,03,14,37,29.60
2015,07,03,14,38,29.50
2015,07,03,14,39,29.40
2015,07,03,14,40,29.40
2015,07,03,14,41,29.50
2015,07,03,14,42,29.50
2015,07,03,14,43,29.60
2015,07,03,14,44,29.60
2015,07,03,14,45,29.60
2015,07,03,14,46,29.60
2015,07,03,14,47,29.50
2015,07,03,14,48,29.50
2015,07,03,14,49,29.40
2015,07,03,14,50,29.10
2015,07,03,14,51,29.00
2015,07,03,14,52,28.90
2015,07,03,14,53,28.90
2015,07,03,14,54,28.80
2015,07,03,14,55,28.60
2015,07,03,14,56,28.60
2015,07,03,14,57,28.60
2015,07,03,14,58,28.40
2015,07,03,14,59,28.00
2015,07,03,15,00,27.60
2015,07,03,15,01,27.20
2015,07,03,15,02,27.00
2015,07,03,15,03,27.00
2015,07,03,15,04,27.10
2015,07,03,15,05,27.10
2015,07,03,15,06,27.20
2015,07,03,15,07,27.30
2015,07,03,15,08,27.40
2015,07,03,15,09,27.40
2015,07,03,15,10,27.40
2015,07,03,15,11,27.50
2015,07,03,15,12,27.80
2015,07,03,15,13,28.00
2015,07,03,15,14,28.20
2015,07,03,15,15,28.40
2015,07,03,15,16,28.40
2015,07,03,15,17,28.60
2015,07,03,15,18,28.60
2015,07,03,15,19,28.80
2015,07,03,15,20,28.80
2015,07,03,15,21,28.70
2015,07,03,15,22,28.60
2015,07,03,15,23,28.60
2015,07,03,15,24,28.40
2015,07,03,15,25,28.30
2015,07,03,15,26,28.10
2015,07,03,15,27,28.20
2015,07,03,15,28,28.20
2015,07,03,15,29,28.40
2015,07,03,15,30,28.50
2015,07,03,15,31,28.70
2015,07,03,15,32,28.80
2015,07,03,15,33,28.80
2015,07,03,15,34,28.80
2015,07,03,15,35,28.80
2015,07,03,15,36,28.80
2015,07,03,15,37,28.70
2015,07,03,15,38,28.60
2015,07,03,15,39,28.50
2015,07,03,15,40,28.30
2015,07,03,15,41,28.10
2015,07,03,15,42,28.00
2015,07,03,15,43,27.90
2015,07,03,15,44,27.90
2015,07,03,15,45,27.80
2015,07,03,15,46,27.90
2015,07,03,15,47,27.80
2015,07,03,15,48,27.80
2015,07,03,15,49,27.70
2015,07,03,15,50,27.50
2015,07,03,15,51,27.30
2015,07,03,15,52,27.20
2015,07,03,15,53,27.10
2015,07,03,15,54,27.00
2015,07,03,15,55,26.90
2015,07,03,15,56,26.80
2015,07,03,15,57,26.80
2015,07,03,15,58,26.80
2015,07,03,15,59,26.80
2015,07,03,16,00,26.80
2015,07,03,16,01,26.70
2015,07,03,16,02,26.60
2015,07,03,16,03,26.60
2015,07,03,16,04,26.50
2015,07,03,16,05,26.40
2015,07,03,16,06,26.40
2015,07,03,16,07,26.50
2015,07,03,16,08,26.60
2015,07,03,16,09,26.60
2015,07,03,16,10,26.60
2015,07,03,16,11,26.60
2015,07,03,16,12,26.60
2015,07,03,16,13,26.70
2015,07,03,16,14,26.80
2015,07,03,16,15,27.10
2015,07,03,16,16,27.30
2015,07,03,16,17,27.40
2015,07,03,16,18,27.60
2015,07,03,16,19,27.70
2015,07,03,16,20,27.80
2015,07,03,16,21,27.90
2015,07,03,16,22,28.00
2015,07,03,16,23,28.20
2015,07,03,16,24,28.20
2015,07,03,16,25,28.30
2015,07,03,16,26,28.30
2015,07,03,16,27,28.30
2015,07,03,16,28,28.40
2015,07,03,16,29,28.40
2015,07,03,16,30,28.40
2015,07,03,16,31,28.40
2015,07,03,16,32,28.60
2015,07,03,16,33,28.60
2015,07,03,16,34,28.70
2015,07,03,16,35,28.80
2015,07,03,16,36,28.80
2015,07,03,16,37,28.80
2015,07,03,16,38,28.90
2015,07,03,16,39,28.90
2015,07,03,16,40,28.90
2015,07,03,16,41,28.90
2015,07,03,16,42,28.90
2015,07,03,16,43,28.90
2015,07,03,16,44,28.90
2015,07,03,16,45,28.80
2015,07,03,16,46,28.90
2015,07,03,16,47,28.90
2015,07,03,16,48,28.90
2015,07,03,16,49,28.90
2015,07,03,16,50,28.90
2015,07,03,16,51,29.00
2015,07,03,16,52,29.10
2015,07,03,16,53,29.20
2015,07,03,16,54,29.30
2015,07,03,16,55,29.30
2015,07,03,16,56,29.40
2015,07,03,16,57,29.40
2015,07,03,16,58,29.40
2015,07,03,16,59,29.30
2015,07,03,17,00,29.30
2015,07,03,17,01,29.30
2015,07,03,17,02,29.20
2015,07,03,17,03,29.10
2015,07,03,17,04,29.10
2015,07,03,17,05,29.20
2015,07,03,17,06,29.20
2015,07,03,17,07,29.20
2015,07,03,17,08,29.20
2015,07,03,17,09,29.20
2015,07,03,17,10,29.20
2015,07,03,17,11,29.20
2015,07,03,17,12,29.30
2015,07,03,17,13,29.30
2015,07,03,17,14,29.30
2015,07,03,17,15,29.30
2015,07,03,17,16,29.30
2015,07,03,17,17,29.40
2015,07,03,17,18,29.40
2015,07,03,17,19,29.50